[[{"header":{"parameterUnit":"m.s-1","parameterCategory":1,"la1":30.2991,"la2":30.254,"lo1":-89.0895,"lo2":-89.0444,"dx":0.0017,"dy":0.0017,"nx":28,"ny":28,"refTime":"2022-12-13T09:00:00:Z","depth":0,"parameterNumber":2,"parameterNumberName":"U-component_of_WINDS"},"data":[0,0,0,0,0,0,0,0,0,0,0,0,0,0,0,0,0,0,0,0,0,0,0,0,0,0,0,0,0,0,0,0,0,0,0,0,0,0,0,0,0,0,0,0,0,0,0,0,0,0,0,0,0,0,0,0,0,0,-4.4453,-4.4455,0,-4.4584,-4.4586,-4.4587,-4.4544,-4.4541,-4.4539,-4.4536,-4.4676,-4.4683,-4.4689,0,0,0,0,0,0,0,0,0,0,0,0,0,-4.4171,-4.4177,-4.4453,-4.4455,-4.4456,-4.4584,-4.4586,-4.4588,-4.4545,-4.4541,-4.4538,-4.4535,-4.4674,-4.4682,-4.469,0,0,0,0,0,0,0,0,0,0,0,0,0,-4.4298,-4.4179,-4.4453,-4.445,-4.4451,-4.4584,-4.4586,-4.4588,-4.4546,-4.4541,-4.4537,-4.4533,-4.4672,-4.4681,-4.4691,-4.4836,0,0,-4.472,-4.4724,0,0,0,0,0,0,0,0,-4.429,-4.4308,-4.4449,-4.445,-4.4452,-4.4543,-4.4538,-4.4671,-4.4547,-4.451,-4.4536,-4.4531,-4.4636,-4.4648,-4.4683,-4.4842,-4.4848,-4.4721,-4.4727,-4.4731,-4.4733,0,0,0,0,0,0,0,-4.4282,-4.4302,-4.4505,-4.4451,-4.4453,-4.4445,-4.4458,-4.4563,-4.4596,-4.4513,-4.451,-4.4526,-4.4636,-4.4673,-4.4686,-4.485,-4.4721,-4.4729,-4.4735,-4.4739,-4.5139,-4.5144,0,0,0,0,0,0,-4.4271,-4.4295,-4.4501,-4.4509,-4.4359,-4.4453,-4.4468,-4.4519,-4.4594,-4.4602,-4.4529,-4.4523,-4.4659,-4.4674,-4.469,-4.4867,-4.4731,-4.474,-4.4745,-4.5134,-4.514,-4.5145,0,0,0,0,0,0,-4.4265,-4.429,-4.4496,-4.4401,-4.4427,-4.4462,-4.452,-4.4523,-4.456,-4.4607,-4.4613,-4.4561,-4.4656,-4.4677,-4.48,-4.4871,-4.4744,-4.4753,-4.5128,-4.5136,-4.5143,-4.5221,0,0,0,0,0,0,-4.4257,-4.4288,-4.4342,-4.4403,-4.4432,-4.4601,-4.4524,-4.4529,-4.4577,-4.457,-4.4638,-4.4645,-4.4655,-4.4786,-4.481,-4.4882,-4.476,-4.5122,-4.5132,-4.514,-4.5212,-4.523,-4.5245,0,0,0,0,0,-4.4247,-4.4359,-4.4345,-4.437,-4.45,-4.4605,-4.4622,-4.4629,-4.4582,-4.4638,-4.4668,-4.4643,-4.4859,-4.4799,-4.4825,-4.4902,-4.5118,-4.5129,-4.514,-4.5205,-4.5226,-4.5245,0,0,0,0,0,0,-4.4307,-4.4367,-4.4352,-4.4486,-4.4541,-4.4598,-4.4668,-4.4651,-4.4722,-4.4713,-4.472,-4.4736,-4.4863,-4.4895,-4.4826,-4.5048,-4.4982,-4.4999,-4.5022,-4.5044,-4.506,-4.505,-4.4768,0,0,0,0,0,-4.4336,-4.4415,-4.4463,-4.4577,-4.4606,-4.4632,-4.4679,-4.4679,-4.4737,-4.476,-4.4799,-4.4858,-4.494,-4.4993,-4.507,-4.5216,-4.5232,-4.5282,-4.5299,-4.5312,-4.5327,-4.5409,-4.5433,-4.5181,-4.5181,-4.5181,0,0,-4.4396,-4.4438,-4.4488,-4.4591,-4.4633,-4.4717,-4.4652,-4.4743,-4.4806,-4.4775,-4.4893,-4.4924,-4.4991,-4.5127,-4.5188,-4.5157,-4.54,-4.5326,-4.5336,-4.5344,-4.5423,-4.5447,-4.5468,-4.5189,-4.5187,-4.5186,0,0,-4.4549,-4.4588,-4.4688,-4.4732,-4.4797,-4.4814,-4.4838,-4.4899,-4.4917,-4.5036,-4.5015,-4.5092,-4.5231,-4.528,-4.5323,-4.5497,-4.5478,-4.5522,-4.5609,-4.5689,-4.5709,-4.5726,-4.5791,-4.5814,-4.5536,-4.5536,-4.5537,0,-4.4616,-4.474,-4.4742,-4.4836,-4.4883,-4.4856,-4.496,-4.5003,-4.5091,-4.5125,-4.5088,-4.5263,-4.5306,-4.5454,-4.5497,-4.5532,-4.5562,-4.5514,-4.5705,-4.5723,-4.574,-4.5801,-4.5825,-4.5541,-4.5541,-4.554,-4.554,0,-4.4821,-4.4907,-4.498,-4.5064,-4.512,-4.5218,-4.5237,-4.5294,-4.529,-4.5312,-4.5435,-4.5485,-4.5574,-4.5609,-4.5606,-4.5758,-4.5736,-4.5702,-4.5637,-4.5769,-4.5827,-4.585,-4.5549,-4.5547,-4.5545,-4.5544,0,0,-4.5014,-4.5099,-4.5126,-4.5165,-4.5236,-4.5304,-4.5402,-4.5486,-4.5536,-4.5597,-4.5682,-4.5801,-4.577,-4.582,-4.5823,-4.5893,-4.603,-4.5851,-4.5852,-4.5884,-4.6204,-4.623,-4.6257,-4.6018,-4.6022,-4.6026,-4.6199,0,-4.5175,-4.5345,-4.5351,-4.5507,-4.5589,-4.5566,-4.5652,-4.5706,-4.573,-4.5804,-4.5831,-4.5917,-4.5868,-4.5898,-4.5967,-4.5999,-4.6095,-4.5986,-4.6099,-4.6103,-4.6084,-4.6287,-4.6315,-4.6476,-4.6221,-4.6225,-4.6228,0,-4.5384,-4.5451,-4.5616,-4.5676,-4.5711,-4.5787,-4.5867,-4.5937,-4.5999,-4.6012,-4.6068,-4.6061,-4.6164,-4.6095,-4.6239,-4.6165,-4.6212,-4.6235,-4.6241,-4.6253,-4.6174,-4.6307,-4.6527,-4.6552,-4.6263,-4.6261,-4.6258,0,-4.5512,-4.5644,-4.5759,-4.5793,-4.5866,-4.5921,-4.5955,-4.6012,-4.6063,-4.6134,-4.6168,-4.6249,-4.6295,-4.636,-4.6377,-4.6324,-4.6522,-4.6453,-4.6538,-4.6538,-4.6582,-4.6579,-4.6815,-4.6609,-4.6609,-4.6608,-4.6608,0,-4.5691,-4.5793,-4.5818,-4.5889,-4.6004,-4.6011,-4.6125,-4.6155,-4.6207,-4.6286,-4.6272,-4.6347,-4.6363,-4.6443,-4.6457,-4.6576,-4.6596,-4.6611,-4.6614,-4.6614,-4.6612,-4.6645,-4.6635,-4.6615,-4.6613,-4.6612,-4.6611,0,-4.5853,-4.5873,-4.5999,-4.6058,-4.6075,-4.6157,-4.6209,-4.6279,-4.6301,-4.6402,-4.6426,-4.6462,-4.6554,-4.6577,-4.6688,-4.6698,-4.6839,-4.683,-4.6818,-4.6818,-4.6902,-4.6895,-4.7169,-4.7206,-4.6975,-4.6977,-4.6979,0,-4.5966,-4.6044,-4.6112,-4.6163,-4.6198,-4.6281,-4.6333,-4.6344,-4.64,-4.6477,-4.6539,-4.6629,-4.6702,-4.6852,-4.689,-4.6976,-4.697,-4.706,-4.6983,-4.6981,-4.6974,-4.697,-4.6979,-4.7076,-4.7078,-4.708,-4.7082,0,-4.6167,-4.6173,-4.6248,-4.6327,-4.639,-4.6453,-4.6514,-4.6557,-4.6577,-4.6641,-4.6734,-4.6791,-4.6904,-4.6996,-4.7082,-4.7119,-4.7106,-4.7106,-4.713,-4.7131,-4.7121,-4.713,-4.686,-4.71,-4.7098,-4.7096,-4.7095,-4.7095,-4.6309,-4.6378,-4.6437,-4.6521,-4.6568,-4.6625,-4.6695,-4.6726,-4.6803,-4.6895,-4.6898,-4.7001,-4.7064,-4.7178,-4.722,-4.7303,-4.7276,-4.7311,-4.732,-4.7329,-4.7338,-4.7107,-4.7319,-4.7318,-4.7318,-4.7317,-4.7317,0,-4.651,-4.6547,-4.6625,-4.671,-4.6777,-4.6756,-4.6822,-4.6881,-4.6971,-4.703,-4.7102,-4.7212,-4.7301,-4.7346,-4.7435,-4.7493,-4.7489,-4.7516,-4.7512,-4.7522,-4.7356,-4.7326,-4.7518,-4.7518,-4.7518,-4.7517,-4.7517,-4.7517,-4.6623,-4.6739,-4.6753,-4.6894,-4.693,-4.703,-4.707,-4.7124,-4.7171,-4.7293,-4.7367,-4.7395,-4.7449,-4.7542,-4.7624,-4.7636,-4.767,-4.7701,-4.7709,-4.7554,-4.7533,-4.7514,-4.7486,-4.7708,-4.7708,-4.7869,-4.787,-4.7872]},{"header":{"parameterUnit":"m.s-1","parameterCategory":1,"la1":30.2991,"la2":30.254,"lo1":-89.0895,"lo2":-89.0444,"dx":0.0017,"dy":0.0017,"nx":28,"ny":28,"refTime":"2022-12-13T09:00:00:Z","depth":0,"parameterNumber":3,"parameterNumberName":"V-component_of_WINDS"},"data":[0,0,0,0,0,0,0,0,0,0,0,0,0,0,0,0,0,0,0,0,0,0,0,0,0,0,0,0,0,0,0,0,0,0,0,0,0,0,0,0,0,0,0,0,0,0,0,0,0,0,0,0,0,0,0,0,0,0,-0.5486,-0.5486,0,-0.5483,-0.5483,-0.5483,-0.5452,-0.5451,-0.545,-0.545,-0.5447,-0.5448,-0.5448,0,0,0,0,0,0,0,0,0,0,0,0,0,-0.5465,-0.5466,-0.5486,-0.5486,-0.5486,-0.5483,-0.5483,-0.5483,-0.5452,-0.5451,-0.545,-0.5449,-0.5447,-0.5448,-0.5448,0,0,0,0,0,0,0,0,0,0,0,0,0,-0.5469,-0.5466,-0.5486,-0.547,-0.5469,-0.5483,-0.5483,-0.5483,-0.5452,-0.5451,-0.545,-0.5449,-0.5447,-0.5448,-0.5449,-0.5478,0,0,-0.5452,-0.5452,0,0,0,0,0,0,0,0,-0.5469,-0.547,-0.5473,-0.5471,-0.547,-0.5467,-0.5475,-0.5481,-0.5453,-0.5459,-0.545,-0.5448,-0.5455,-0.5455,-0.5457,-0.5478,-0.5478,-0.5452,-0.5452,-0.5453,-0.5453,0,0,0,0,0,0,0,-0.5469,-0.547,-0.5485,-0.5473,-0.5471,-0.5463,-0.5463,-0.5476,-0.5463,-0.5458,-0.5456,-0.5456,-0.5454,-0.5456,-0.5457,-0.5478,-0.5452,-0.5453,-0.5453,-0.5454,-0.5523,-0.5524,0,0,0,0,0,0,-0.5471,-0.547,-0.5485,-0.5485,-0.5467,-0.5465,-0.5464,-0.5469,-0.5463,-0.5461,-0.5457,-0.5454,-0.5455,-0.5455,-0.5456,-0.549,-0.5453,-0.5454,-0.5454,-0.5521,-0.5523,-0.5524,0,0,0,0,0,0,-0.5471,-0.5473,-0.5485,-0.5477,-0.5478,-0.5466,-0.5472,-0.547,-0.5472,-0.5462,-0.546,-0.5462,-0.5454,-0.5455,-0.5473,-0.549,-0.5454,-0.5455,-0.552,-0.5522,-0.5523,-0.5559,0,0,0,0,0,0,-0.547,-0.5473,-0.5484,-0.5477,-0.5479,-0.5502,-0.5473,-0.547,-0.5474,-0.547,-0.5466,-0.5464,-0.5453,-0.5471,-0.5474,-0.549,-0.5456,-0.5518,-0.5521,-0.5523,-0.5556,-0.5561,-0.5566,0,0,0,0,0,-0.5469,-0.5494,-0.5485,-0.5487,-0.5492,-0.5503,-0.5504,-0.549,-0.5475,-0.5486,-0.548,-0.5464,-0.5488,-0.5474,-0.5476,-0.5493,-0.5517,-0.552,-0.5523,-0.5554,-0.556,-0.5566,0,0,0,0,0,0,-0.5503,-0.5493,-0.5482,-0.5506,-0.5505,-0.5498,-0.5511,-0.5498,-0.5502,-0.5499,-0.5483,-0.5482,-0.5502,-0.5499,-0.5484,-0.5521,-0.55,-0.5503,-0.5522,-0.5529,-0.5534,-0.5534,-0.5457,0,0,0,0,0,-0.5513,-0.5523,-0.5513,-0.5535,-0.5535,-0.5523,-0.5527,-0.5517,-0.5516,-0.5516,-0.5511,-0.5511,-0.5518,-0.5523,-0.5529,-0.5555,-0.5554,-0.5568,-0.5573,-0.5578,-0.5581,-0.5594,-0.56,-0.5533,-0.5533,-0.5533,0,0,-0.5534,-0.553,-0.5537,-0.5541,-0.554,-0.555,-0.5523,-0.5535,-0.5543,-0.5518,-0.5534,-0.5531,-0.5529,-0.5551,-0.5561,-0.555,-0.5599,-0.5581,-0.5585,-0.5586,-0.5598,-0.5604,-0.561,-0.5535,-0.5535,-0.5535,0,0,-0.5578,-0.5575,-0.5593,-0.5592,-0.559,-0.5582,-0.5586,-0.558,-0.5576,-0.5592,-0.5574,-0.5582,-0.5595,-0.5595,-0.5597,-0.5639,-0.5625,-0.5642,-0.5669,-0.5682,-0.5687,-0.5692,-0.5707,-0.5712,-0.5645,-0.5645,-0.5645,0,-0.5604,-0.5618,-0.5603,-0.5616,-0.5619,-0.5596,-0.5614,-0.5614,-0.5614,-0.5616,-0.5603,-0.5619,-0.5616,-0.5638,-0.5648,-0.565,-0.5654,-0.5642,-0.5687,-0.5692,-0.5696,-0.571,-0.5716,-0.5647,-0.5647,-0.5646,-0.5646,0,-0.5651,-0.5661,-0.5675,-0.5676,-0.568,-0.5695,-0.5682,-0.5688,-0.5677,-0.567,-0.5687,-0.5683,-0.5688,-0.5692,-0.5682,-0.5712,-0.5705,-0.569,-0.5668,-0.5705,-0.5718,-0.5723,-0.565,-0.5649,-0.5648,-0.5648,0,0,-0.5716,-0.5707,-0.5713,-0.5712,-0.5708,-0.5716,-0.573,-0.5734,-0.5739,-0.574,-0.5751,-0.5762,-0.5748,-0.575,-0.574,-0.5751,-0.5785,-0.5735,-0.5735,-0.5744,-0.5817,-0.5829,-0.5835,-0.5775,-0.5776,-0.5777,-0.5818,0,-0.5758,-0.5781,-0.5767,-0.5792,-0.5801,-0.578,-0.5792,-0.5791,-0.5785,-0.5791,-0.5785,-0.5793,-0.5774,-0.5775,-0.5785,-0.5779,-0.5799,-0.5776,-0.5786,-0.5786,-0.5787,-0.5842,-0.5854,-0.5892,-0.5823,-0.5823,-0.5824,0,-0.5809,-0.5812,-0.5838,-0.5831,-0.5834,-0.5846,-0.5848,-0.5855,-0.5853,-0.5848,-0.5849,-0.5836,-0.5849,-0.5827,-0.5845,-0.5829,-0.5832,-0.583,-0.5831,-0.5831,-0.5807,-0.5844,-0.5904,-0.591,-0.5832,-0.5831,-0.5831,0,-0.5854,-0.5864,-0.588,-0.5881,-0.5874,-0.5882,-0.5879,-0.5876,-0.5879,-0.5882,-0.5884,-0.5888,-0.589,-0.5893,-0.5881,-0.5867,-0.5901,-0.5878,-0.5897,-0.5897,-0.5905,-0.5905,-0.5967,-0.5907,-0.5907,-0.5907,-0.5907,0,-0.5902,-0.5918,-0.59,-0.591,-0.5928,-0.5912,-0.5931,-0.5926,-0.5923,-0.5932,-0.5914,-0.5923,-0.5906,-0.5914,-0.5904,-0.592,-0.5922,-0.5918,-0.5915,-0.5919,-0.592,-0.5921,-0.5918,-0.5909,-0.5908,-0.5908,-0.5908,0,-0.5954,-0.5943,-0.5959,-0.5951,-0.5949,-0.5963,-0.5956,-0.5965,-0.5957,-0.5969,-0.5971,-0.5959,-0.5967,-0.5955,-0.5961,-0.5955,-0.5977,-0.597,-0.5978,-0.5976,-0.5995,-0.5993,-0.606,-0.6068,-0.6004,-0.6004,-0.6005,0,-0.5986,-0.5998,-0.5991,-0.5995,-0.5993,-0.6001,-0.6004,-0.5989,-0.5993,-0.5991,-0.6001,-0.6007,-0.601,-0.6023,-0.6015,-0.602,-0.6013,-0.6036,-0.6014,-0.6018,-0.6013,-0.6013,-0.6014,-0.6041,-0.6042,-0.6042,-0.6043,0,-0.6042,-0.6036,-0.6041,-0.6044,-0.6048,-0.6049,-0.605,-0.6054,-0.6038,-0.6044,-0.6051,-0.6054,-0.606,-0.6066,-0.6069,-0.6066,-0.6052,-0.605,-0.6054,-0.6059,-0.6063,-0.6061,-0.599,-0.6049,-0.6048,-0.6048,-0.6047,-0.6047,-0.6085,-0.6094,-0.6091,-0.6097,-0.6095,-0.6096,-0.6104,-0.6097,-0.6103,-0.6106,-0.6097,-0.6106,-0.6104,-0.6106,-0.6105,-0.6112,-0.6102,-0.6108,-0.611,-0.6112,-0.6115,-0.6062,-0.6112,-0.6112,-0.6112,-0.6112,-0.6112,0,-0.614,-0.6137,-0.6142,-0.6143,-0.6148,-0.6134,-0.6133,-0.6138,-0.6146,-0.6145,-0.6149,-0.6157,-0.6163,-0.6155,-0.616,-0.6167,-0.616,-0.6168,-0.6168,-0.6167,-0.6124,-0.6119,-0.6173,-0.6173,-0.6173,-0.6173,-0.6173,-0.6173,-0.6169,-0.6185,-0.6178,-0.6192,-0.6189,-0.6197,-0.6198,-0.6199,-0.6198,-0.6207,-0.6212,-0.6207,-0.6203,-0.6206,-0.6211,-0.6209,-0.6211,-0.6221,-0.6217,-0.6176,-0.617,-0.6165,-0.616,-0.6222,-0.6222,-0.626,-0.626,-0.626]}]]